Race Results for
Snow Summit Am Cup Series
Snow Summit, CA
(Event Information)
This is a non-competitive event
Downhill on 06/05/2004

Note: Ranking points are NOT upgrade points. An explanation of ranking points can be found here.


Men - Clydesdale - Master - 35-99

 Place NameCity, StateTime USAC #BibTeam
1John Flagler   Topanga, CA12:10.48 213717  725 
2Michael Schuck   Chula Vista, CA14:38.01 181191  726 SO CAL 6 P
3JOSH KAPLAN   14:38.29  1128 

Men - Retro

 Place NameCity, StateTime USAC #BibTeam
1Donnie Kendrick   La Mesa, CA12:19.38 174357  431 NICOLAI
2Lance DesBaillets   Oak View, CA15:15.50 212714  792 BICYCLES

Men - Wheelchair

 Place NameCity, StateTime USAC #BibTeam
DNFBRAD MEINZER   51:51.18  417 PARAPEOS R

Men - Pro

 Place NameCity, StateTime USAC #BibTeam
1Todd LeDuc   Cherry Valley, CA06:47.67 99796  376 FOES/AZONI
2Jeff Evans   San Jose, CA06:50.54 149037  32 KHS

Men - SM

 Place NameCity, StateTime USAC #BibTeam
1Ian Odom   Big Bear City, CA06:58.60 153418  35 ATOMLAB/TB
2Adrian Cortina   Santa Barbara, CA07:07.88 100348  388 CORTINA CY
3Deke Williams   Thousand Oaks, CA07:08.33 38332  4907 WILMANCO
4Chuck Valenzuela   Littlerock, CA07:08.83 156982  303 KHS
5Tony Gardikis   Rancho Santa Margarit, CA07:10.59 172612  365 HONDA TURN
6Quinton Spaulding   Henderson, NV07:15.55 165835  333 KHS
7Landon Taylor   Big Bear Lake, CA07:17.20 172596  19 TBB/PROGRS
8Sean McClendon   Pine Valley, CA07:17.70 159018  399 123BIKE/SM
9Evelio Suarez   Costa Mesa, CA07:30.58 162000  373 KHS BICYCL
DNFMark Jordan   Valencia, CA51:51.18 83149  386 ME

Men - EX - Junior - 1-18

 Place NameCity, StateTime USAC #BibTeam
1John Swanguen   San Diego06:46.76 175203  306 COLLEGE
2Hank Cadle   Lake Forest, CA07:04.35 191080  374 FUNPIG
3Curtis Zamora   Walnut, CA07:07.48 176182  40 NO BRAKES
4Mark Hower   Riverside, CA07:17.73 160804  363 
5NICHOLAS ORTON   07:17.89  24 CFR
6Chris Main   Atascadero, CA07:33.72 165461  387 CHUMBA WUM
7MIKE BARRETT   08:01.05  22 INCYCLE
DNFTRAVIS BOND   51:51.18  322 TOMAC

Men - EX - Senior - 19-24

 Place NameCity, StateTime USAC #BibTeam
1Eigil Bisgaard   Alpine, CA07:01.62 179747  10 INTENSE
2RYAN HELMUTH   07:03.48  325 TM BLKDOUT
3Michael Brown   Temecula, CA07:04.41 201801  393 PLANET X
4Charles Libolt   Riverside, CA07:05.12 103720  
5Alfonso Garcia   Chula Vista, CA07:06.85 199489  377 SOCA/SIX R
6TANNER HENSLEY   07:17.63  41 
7Travis Eve   Long Beach, CA07:18.38 202141  31 BHC CRANEW
8RYAN REDDY   07:18.71  332 BEYOND BIK
9NICHOLAS FEDUSKA   07:23.24  ATOMIC BIK
10Michael Forest   Ventura, CA07:24.94 209218  36 MICHELIN
11Jermaine Brown   Duarte, CA07:26.16 182972  37 H&S BIKES
12VINCE SKANDUNAS   07:30.93  
13Brian Webster   Victor Ville, CA07:30.93 164282  390 ROMIC
14MARK MILLER   07:33.94  
15STEVEN MEZA   07:34.41  371 G'S CYCLER
16John Cary   Westlake Village, CA07:34.65 177651  15 MAXXIS/COR
17Tom O'Connor   Fallbrook, CA07:34.74 148568  25 BEYOND BIK
DNFAnthony Cuomo   El Cajon, CA51:51.18 157172  307 FSU/ADIDAS
DNFGeorge Simoncini   Redwood City, CA51:51.18 190178  18 

Men - EX - Senior - 25-29

 Place NameCity, StateTime USAC #BibTeam
1DAMIEN SMITH   07:12.79  339 
2Brian Richling   Apple Valley, CA07:26.10 29770  385 DOWNHILL X
3Jason Schippers   Highlands Ranch, CO07:27.83 128580  661
4Jason Dimaggio   Anaheim, CA07:32.24 199852  321 TFU
5Robert Vigil   Lancaster, CA07:32.74 105842  30 MANITOU
6JOEL BATY   07:37.26  316 OLYMPIC BI
7Stephen Zvorsky   Simi Valley, CA07:40.10 167804  400 BEYOND BIK
8Gabriel Proctor   Lucerne Valley, CA07:41.94 178772  305 
9Craig Turner   La Verne, CA07:46.82 200756  29 INCYCLE
DNFRyan Cleek   Santa Cruz, CA10:51.44 182987  13 
DNFCRAIG HARVEY   51:51.18  379 PRODIGY RI

Men - EX - Master - 30-34

 Place NameCity, StateTime USAC #BibTeam
1Aaron Potter   Phoenix, AZ07:09.23 127217  TM FUNPIG/
2TRENT DANIELS   07:12.84  34 DIAMOND BA
3Leo Barillas   Palmdale, CA07:22.83 155978  384 TEAM CFR
4Joshua Kelly   Bakersfield, CA07:26.97 131025  382 FOES/AZONI
5Joshua Cooper   Santee, CA07:27.00 199505  407 
6Joe Zarazua   Ventura, CA07:44.82 160773  12 AZONIC
7Bruce Custer   Ventura, CA07:45.06 94829  11 AZONIC
8Daniel McCormack   San Diego, CA07:49.87 23313  23 TM BEYOND
DNFRodney James   Lennox, CA51:51.18 168437  327 CLARION

Men - EX - Master - 35-39

 Place NameCity, StateTime USAC #BibTeam
1Roger Hurd   Crestline, CA07:10.62 133751  391 ROMIC SHOC
2Rick Nunez   San Diego, CA07:14.36 202140  17 BEYOND BIK
3Bradley Beck   San Juan Capistrano, CA07:14.64 104241  317 NO BRAKES
4Ken Gioeli   Idyllwild, CA07:16.43 182961  366 ELLSWORTH
5PAT PURNELL   07:22.19  21 
6Arthur Aguilar   Montebello, CA07:24.24 142476  33 ATOMICBIKE
7LOR RILHIMAKI   07:24.25  28 
8Jason Simpson   La Verne, CA07:24.48 98126  16 INCYCLE/MA
9Willy Calinato   Santa Monica, CA07:26.22 213153  398 
10JOE SIMPSON   07:33.37  27 INCYCLE
11Thomas Secor   Rialto, CA07:37.83 199506  TNT
12Michael Gonzalez   Thousand Oaks, CA07:40.17 41931  396 AZONIC
13Brett Butler   Manhattan Beach, CA08:12.44 135242  302 HONDA/TURN
14Rick Sanchez   Tustin, CA08:47.50 192661  354 AMGEN

Men - EX - Master - 35-99

 Place NameCity, StateTime USAC #BibTeam
1Terry Maddox   Blythe, CA07:03.76 157171  389 ROMIC
2Craig Van Cleve   Henderson, NV07:04.43 110847  375 BEYOND BIK
3David Forbis   Alpine, CA07:07.49 181243  314 BEYOND BIK
4Michael Thompson   Murrieta, CA07:12.11 172219  394 FUN PIG/WR
5Karl Eberhardt   San Diego, CA07:46.92 94812  20 HARO RED B

Men - EX - Master - 40-44

 Place NameCity, StateTime USAC #BibTeam
1Tom Richardson   Newport Beach, CA07:28.02 159076  39 WCWC
2David Brown   San Diego, CA07:32.87 179549  392 AZONIC
3Craig Rossi   Riverside, CA07:40.94 113198  315 
DNFPeter Jensen   Saint Louis, MO51:51.18 162736  324 NO BRAKES

Men - EX - Master - 45-49

 Place NameCity, StateTime USAC #BibTeam
1Gary Meinert   La Mesa, CA07:21.69 143593  1035 BEYOND BIK
2Moses Cruz   Tempe, AZ07:24.66 132796  383 NO BRAKES
3Bryan Justice   Garden Grove, CA07:37.45 194146  304 NO BRAKES
4Gary DeWeese   Phoenix, AZ07:41.74 90189  397 NO BRAKES
5Steve Bird   Sherman Oaks, CA07:54.28 3738  337 I MARTIN I
6Bobby Bondurant   Big Bear City, CA07:58.89 107266  368 DEPRAVEDAL
7Steve Spillman   Glendale, CA08:11.83 183726  H&S BIKES
8Chris Shelley   San Diego, CA08:22.84 187795  785 XTERRA GEA
9Roger Gutierrez   Riverside, CA08:59.76 198502  349 NO BRAKES
DNFGregory Williams   51:51.18 213552  370 

Men - EX - Master - 55-59

 Place NameCity, StateTime USAC #BibTeam
1Thomas Lamb   Jamul, CA10:02.98 20189  26 CHUMBA WUM

Men - SP - Junior - 1-14

 Place NameCity, StateTime USAC #BibTeam
1Blake Carney   Camarillo, CA11:54.47 200586  731 FLY RACING
2MICHAEL SCHLERETH   12:09.03  1059 PHANTOM BI
3Kody Adams   Hesperia, CA14:57.24 181187  410 DOWNHILL X
4Matthew Swanguen   San Diego, CA16:27.42 182998  706 COLLEGE CY

Men - SP - Junior - 15-18

 Place NameCity, StateTime USAC #BibTeam
1SHANE BLANCHARD   11:28.08  419 WELLS RACI
2JAKE CAPRIOTTI   11:35.43  739 TACO BELL
3MICHAEL BAROSKO   11:42.63  728 WOODCREST
4BRUNO LUCIONI   11:55.69  421 CHECKERED
5MILES PAYTON   11:56.71  751 
6TONY REED   11:58.65  435 H&S BICYCL
7Taylor Mohr   San Luis Obispo, CA12:00.79 200754  414 
8Taurino Tadeo   12:43.12 200099  705 NO BRAKES
9RICHARD PARKER   13:01.43  758 
10Nick Neuhaus   Novato, CA13:06.35 206372  782 MILL VALLE
11DANIEL CORDERO   14:55.33  729 
12AUDREY STALLCUP   16:16.59  401 

Men - SP - Senior - 19-24

 Place NameCity, StateTime USAC #BibTeam
1ELI WOODY   11:19.47  429 
2Trevor Jones   Costa Mesa11:36.35 171067  789 CYCLE WERK
3CESAR ALVAREZ   12:00.78  424 FOES
4JOEY CARBONI   12:14.00  790 CYCLE WERK
5STEVE BODENSIECK   12:16.60  430 
6Blaine Simpson   Ventura, CA12:23.31 170671  405 MEDIA STOR
7Gregg Barnard   Irvine, CA13:27.25 183280  416 G-FORCE RA
8JOSHUA BALTAXE   14:56.93  343 
DNFJOSHUA HALL   02:11.48  794 

Men - SP - Senior - 25-29

 Place NameCity, StateTime USAC #BibTeam
1MICHAEL NAVARRECE   12:01.30  425 
2JULLIEN THOMAS   12:06.82  406 
3Ryan Cockroft   Rancho Palos Verdes, CA12:11.67 160887  403 OAKLEY MAM
4BRANDON ANDERSON   12:55.54  434 
5Larry Averitt   Hillsboro, OR13:00.07 199880  775 FAT LARRY
6Geoff Barnard   Orange, CA13:02.86 172244  415 G-FORCE
7NICK CONSTANTINE   13:29.32  738 INTENSE

Men - SP - Master - 30-34

 Place NameCity, StateTime USAC #BibTeam
1Christopher Grodell   Valencia, CA12:05.01 142727  771 AZONIC
2TONY AGUIRRE   12:09.50  784 PLATINUM X
3DARREN COX   12:30.52  735 
4Robert Rose   Pahrump, NV12:30.84 200110  763 INTNS/FUNP
5MICHAEL SCHUETTA   12:37.42  412 
6Carlos Gonzalez   Stevenson Ranch, CA12:49.40 200106  793 MARZOOCHI
7JOHN MARX   12:56.26  438 
8MARIO BURGUERA   13:11.74  427 
9DANIEL BURT   13:21.56  404 661
10SHANNON KANE   14:32.62  409 
DNFRick Martinez   Monrovia, CA51:51.18 149181  433 PRICEPOINT
DNFMATT OHRBERG   51:51.18  748 
DNFBRENT NAGELE   51:51.18  749 

Men - SP - Master - 35-39

 Place NameCity, StateTime USAC #BibTeam
1JEFFREY HOFFMAN   12:01.69  791 CYCLEWORKS
2Craig Bonner   Hollywood, CA12:01.93 213714  422 DAMAGED GE
3CHRIS FRUCTUS   12:10.68  402 TNT
4NORMAN BREES   13:03.14  723 FAT LARRY
5JIM SCHENCK   13:23.87  798 BEYOND BIK
6Kelly Schall   Granada Hills, CA14:04.24 31485  795 IRACEBMX.C
7RICHARD INOUYE   14:06.31  743 

Men - SP - Master - 40-44

 Place NameCity, StateTime USAC #BibTeam
1MIKE CHAMBERLAND   12:25.31  796 
2Rick Durbin   Colorado Springs, CO12:33.03 204565  420 
3Bryan Butler   Costa Mesa, CA12:46.43 194527  762 SMITH SPT
4SERGIO BRAVO   12:55.97  767 
5PAUL KANE   13:09.29  778 MICHAEL BK
6GREG MARINOFF   13:13.20  788 IDYLLWILD
7Steve Shojinaga   Granada Hills, CA14:51.06 162703  423 
DNFKURT KLIEWER   05:31.51  432 

Men - SP - Master - 45-49

 Place NameCity, StateTime USAC #BibTeam
1CHRIS FEDUSKA   13:16.74  408 CALVERY CH
2Steve Innerbickler   Aliso Viejo, CA13:34.44 165739  787 
3CRAIG EVERHART   15:40.46  418 
4RICK LAKE   15:41.40  800 ADVENTURE

Men - BG - Junior - 1-10

 Place NameCity, StateTime USAC #BibTeam
1CHAZ VALENZUELA   17:23.89  1001 KHS
2THOMAS HURD   19:07.55  1107 ROMIC RACI

Men - BG - Junior - 11-12

 Place NameCity, StateTime USAC #BibTeam
1JAMISON BAKER   14:08.34  1071 
2JORDAN MELLETT   14:18.04  1040 BICYCLES O
3Joshua Nidzieko   Poway, CA15:38.51 201225  1102 A / N RACI
4LOGAN GRUNDL   17:34.26  1030 WOODCREST
5CODY SECOR   23:18.44  1109 TNT RACING

Men - BG - Junior2 - 11-12

 Place NameCity, StateTime USAC #BibTeam
1SKYE PARKS   12:13.19  1015 
2Brian Pracht   San Juan Capistrano, CA12:34.44 207395  1013 
3MICHAEL ARELLANO   12:37.60  1140 H&S
4NATHANIEL OLIVER   13:34.86  1038 
5John Secor   Rialto, CA13:44.48 234418  1110 TNT RACING
6LOGAN HOLSAPPLE   14:47.59  1120 A / N RACI
7JUSTIN ELIOT   15:19.99  1144 
8LUCAS GRUNDL   18:08.84  1129 

Men - BG - Junior - 13-14

 Place NameCity, StateTime USAC #BibTeam
1Kyle Meinert   14:14.19 183343  1012 ZUMWALTS
2KYLE BRUINSMA   14:44.50  1133 
3Chad Durbin   Colorado Springs, CO15:36.25 211473  1136 

Men - BG - Junior - 15-16

 Place NameCity, StateTime USAC #BibTeam
1LUKE HART   11:54.69  1113 
2OLIVER FERRIS   12:11.38  1023 
3RYAN JOHNSON   12:51.46  1135 
4GALEN GIBBS   12:59.64  1002 
5JAMES ZOTTOLA   13:48.45  1125 
6ERIC BLUE   13:51.63  1100 
7GARY ARELLANO   13:57.13  1139 H&S BICYCL
8Andrew Nidzieko   Poway, CA14:08.37 201224  1101 A / N RACI
9DYLAN LOS HUERTOS   14:17.56  1033 
10Mike Tallman   Ramona, CA15:11.35 199510  1152 

Men - BG - Junior - 17-18

 Place NameCity, StateTime USAC #BibTeam
1Daniel Chaffin   Santa Margarita, CA11:59.35 167337  1114 SEADANZE
2Wes Arnal   Simi Valley, CA12:22.21 213146  380 
3JOHN DILLARD   12:30.39  1098 DOWNFAST.C
4Christopher Petzing   Malibu, CA12:33.94 212783  1147 MALIBU 310
5JACOB MAULE   12:37.01  1019 
6BRIAN TRADER   12:39.78  1083 
7JAMES GADBERRY   12:48.96  1145 H&S BICYCL
8HANK GREENE   13:14.13  1099 

Men - BG - Senior - 19-24

 Place NameCity, StateTime USAC #BibTeam
1NEIL CHRISHOLM   12:16.05  1142 H&S FOES
2JOE SULLIVAN   12:20.12  1138 IDYLLWILD
3OSCAR MEJIAS   12:36.60  1090 IDYLLWILD
4CHRISTIAN STANGE   12:43.83  1108 JUST RIDE
5BLAKE BAILEY   12:48.74  1143 
6DAVID GARCIA   13:13.70  1096 BEYOND BIK
7ANDREW CURTIS   14:18.68  1074 
DNFMichael Kelley   Moorpark, CA02:24.38 162080  1027 KHS BICYCL

Men - BG - Senior - 25-29

 Place NameCity, StateTime USAC #BibTeam
1Tommy Hollenbaugh   Yucaipa, CA12:13.63 213726  1121 
2Andrew Barlow   Carlsbad, CA12:48.30 233181  1146 
3ARIEL LOPEZ   13:51.46  1118 PCN RACING
4ED SUAREZ   14:06.51  1119 
5JAKE DOWNING   15:53.59  1075 

Men - BG - Master - 30-34

 Place NameCity, StateTime USAC #BibTeam
1JOHN GABRIEL   12:44.63  740 
2SCOTT SCHWARTZ   13:59.82  1078 TEAM LAZY
3LOTT MASON   14:39.38  1032 
4Barry Hirst   Fillmore, CA18:48.37 190221  1151 

Men - BG - Master - 35-39

 Place NameCity, StateTime USAC #BibTeam
1DAVID PEACOCK   12:46.75  1149 A.G.P.
2Barry Burns   Lakeside, CA13:58.40 212001  1123 
3Gary Chapman   Charlotte, NC14:05.87 209132  1022 
4RITCHARD FULLER   14:12.19  1025 TM LAZI RA
5ADAM NITTE   14:37.40  1089 
6PHILIP KIM   19:22.24  1134 

Men - BG - Master - 35-99

 Place NameCity, StateTime USAC #BibTeam
1Mike Fachar   Simi Valley, CA15:26.08 213166  381 
2SHANE PETERSON   17:05.95  1132 ZUMWALTS
3FRANK QUIROZ JR   17:55.69  1137 

Men - BG - Master - 40-44

 Place NameCity, StateTime USAC #BibTeam
1CRAIG COUNTS   12:41.99  1117 
2RICHARD CONNETT   12:44.60  1112 
3STEVE SHIMADA   14:04.75  1105 
4RON CHAVEZ   14:59.53  1104 
5DOUG MALLOY   16:11.49  1106 JUST RIDE

Men - BG - Master - 45-49

 Place NameCity, StateTime USAC #BibTeam
1Rich Fersch   La Habra, CA13:58.23 181198  1063 RACE HAUS
2Steven Kaufman   Orange, CA14:14.52 193496  1054 TRIAD GROU
3BILL MELLET   15:22.23  1122 
4RICK LEDESMA   16:28.81  1141 

Men - BG - Master - 50-54

 Place NameCity, StateTime USAC #BibTeam
1RICHARD ZANE   16:10.99  1049 

Women - Pro

 Place NameCity, StateTime USAC #BibTeam
1Susanne Liljeroos   Venice, CA07:53.68 151724  340 AZONIC
2Holly Kuhn   Inglewood, CA08:31.84 121480  14 ZOO YORK
3Chelsea Redwood   Concord, NH08:39.38 187886  378 NO BRAKES

Women - EX - Senior - 19-29

 Place NameCity, StateTime USAC #BibTeam
1Kote Driscoll-Thomas   San Luis Obispo, CA08:35.39 206129  H & S BICY

Women - EX - Master - 30-39

 Place NameCity, StateTime USAC #BibTeam
1Colleen Baker   Pahrump, NV08:14.36 185527  345 INTNS/FUNP
2Nancy Harris   Riverside, CA08:56.73 175876  350 NO BRAKES
3Donna Vargas   Mission Viejo, CA09:00.57 194526  786 TM AFP/VEL
4Lisa Lake   Gilbert, AZ09:25.19 154598  395 ADVENTURE
5Lisa Reinhard   Phoenix, AZ10:14.86 157921  330 FUNPIG/HAY

Women - EX - Master - 40-49

 Place NameCity, StateTime USAC #BibTeam
1Debi Nicholls   Trabuco Canyon, CA51:51.18 159710  367 AFP/VELO

Women - SP - Junior - 15-18

 Place NameCity, StateTime USAC #BibTeam
1AMANDA BAKER   14:52.35  765 

Women - SP - Senior - 19-29

 Place NameCity, StateTime USAC #BibTeam
1Essence Barton   Thousand Oak, CA13:21.47 179924  710 GIANT/DIRT
2Maya Hatch   Costa Mesa, CA17:13.98 210426  436 
3Christin Dahle   Costa Mesa, CA18:13.73 190168  426 

Women - SP - Master - 30-39

 Place NameCity, StateTime USAC #BibTeam
1JULIE TAYLOR   15:42.72  411 
2DAWN THOMPSON   21:02.36  797 FUNPIG

Women - BG - Junior - 15-18

 Place NameCity, StateTime USAC #BibTeam
1RANDI RUDDELL   16:44.48  1087 BEYOND BIK

Women - BG - Senior - 19-29

 Place NameCity, StateTime USAC #BibTeam
1Stephanie Atkins   Big Bear Lake, CA16:30.42 210424  1061 

Report missing or incorrect license numbers

Volkswagen
ShimanoSpySierra NevadaBonk BreakerUSACDF
UCI USA Cycling is the official governing body for all disciplines of competitive cycling in the United States. The 501c3, membership-based organization aims both to achieve sustained success in international cycling competition and to grow competitive cycling in America while delivering an exceptional customer experience.
View Children's Online Privacy Protection Policy
US Olympic Committee